Location: Camp at the Woods
(43.2055°N, 93.0905°W)
Time: 10:43:19
(UTC+00:00)

SJ-7 - Pass Details

Date: 05 December 2023
Orbit: 539 x 573 km, 97.8° (Epoch: 20 February)

Event Time Altitude Azimuth Distance (km) Brightness Sun altitude
Rises 23:06:32 0° 159° (SSE) 2,709 7.9 -5.5°
Reaches altitude 10° 23:08:38 10° 157° (SSE) 1,826 7.0 -5.9°
Maximum altitude 23:12:33 68° 75° (ENE) 606 4.3 -6.5°
Drops below altitude 10° 23:16:34 10° 353° (N) 1,865 6.9 -7.2°
Sets 23:18:44 0° 350° (N) 2,772 7.8 -7.6°
